"Pseudo-MPEC" for ZTF0DcD

Created 2020 Jul 5 18:07:10 UT using Find_Orb

Click here for an explanation of pseudo-MPECs

 
 Astrometry: 
     ZTF0DcD  C2020 06 30.45936321 25 44.28 -16 25 30.2    ~6UHq 16.87RUNEOCPI41
     ZTF0DcD  C2020 06 30.45971021 25 48.68 -16 24 44.7    ~6UHq 16.87RUNEOCPI41
     ZTF0DcD  C2020 06 30.48018921 30 23.37 -15 37 38.3    ~6UHq       UNEOCPI41
     ZTF0DcD  C2020 06 30.48053621 30 27.91 -15 36 51.9    ~6UHq       UNEOCPI41

Station data:
(I41) Palomar Mountain--ZTF  (N33.357340 W116.859780)  US/California. 1.2-m
   f/2.44 Oschin Schmidt + CCD.

Orbital elements:  ZTF0DcD
   Perigee 2020 Jun 30.871620 +/- 26 TT = 20:55:08 (JD 2459031.371620)
Epoch 2020 Jun 30.0 TT = JDT 2459030.5                        AutoNEOCP
q 69522.4295 +/- 4.38e+7            (J2000 equator)
H   30.9  G 0.15                    Peri.   48.00109 +/- 48
                                    Node   344.19664 +/- 22
e   2.2145964 +/- 0.239             Incl.   33.92304 +/- 4.3
From 4 observations 2020 June 30 (30.5 min); mean residual 1".43
Residuals in arcseconds: 
200630 I41  .59+  .03+    200630 I41  2.1+  1.9+    
200630 I41  .63-  .06-    200630 I41  2.0-  1.9-    

Ephemerides (geocentric):
Date (UTC) HH   RA              Dec         delta   r     elong  mag " sig PA
---- -- -- --  -------------   -----------  ------ ------ -----  --- ---- ---
2020 07 05 18  09 47 44.555   +11 14 03.28  .00826 1.0105  41.5 27??  45d 175
2020 07 05 19  09 47 52.244   +11 12 49.85  .00832 1.0105  41.5 27??  45d 175
2020 07 05 20  09 47 59.799   +11 11 37.64  .00839 1.0104  41.5 27??  45d 175
2020 07 05 21  09 48 07.223   +11 10 26.63  .00846 1.0104  41.5 27??  45d 175
2020 07 05 22  09 48 14.518   +11 09 16.78  .00852 1.0103  41.5 27??  45d 175
2020 07 05 23  09 48 21.688   +11 08 08.07  .00859 1.0103  41.5 27??  45d 175
2020 07 06 00  09 48 28.735   +11 07 00.48  .00866 1.0102  41.5 27??  45d 175
2020 07 06 01  09 48 35.663   +11 05 53.97  .00872 1.0102  41.5 27??  45d 175
2020 07 06 02  09 48 42.474   +11 04 48.53  .00879 1.0101  41.5 27??  45d 175
2020 07 06 03  09 48 49.170   +11 03 44.14  .00885 1.0101  41.4 27??  45d 175
2020 07 06 04  09 48 55.755   +11 02 40.76  .00892 1.0100  41.4 27??  45d 175
2020 07 06 05  09 49 02.231   +11 01 38.38  .00899 1.0100  41.4 27??  45d 175
2020 07 06 06  09 49 08.599   +11 00 36.97  .00905 1.0099  41.4 27??  45d 175
2020 07 06 07  09 49 14.863   +10 59 36.52  .00912 1.0099  41.4 27??  45d 175
2020 07 06 08  09 49 21.025   +10 58 37.01  .00919 1.0098  41.4 27??  45d 175
2020 07 06 09  09 49 27.087   +10 57 38.41  .00925 1.0098  41.4 27??  45d 175
2020 07 06 10  09 49 33.050   +10 56 40.70  .00932 1.0097  41.4 27??  45d 175
2020 07 06 11  09 49 38.918   +10 55 43.87  .00938 1.0097  41.4 27??  45d 175
2020 07 06 12  09 49 44.692   +10 54 47.90  .00945 1.0096  41.4 27??  45d 175
2020 07 06 13  09 49 50.374   +10 53 52.78  .00952 1.0096  41.3 27??  45d 175
2020 07 06 14  09 49 55.966   +10 52 58.47  .00958 1.0095  41.3 27??  45d 175
2020 07 06 15  09 50 01.470   +10 52 04.98  .00965 1.0095  41.3 27??  45d 175
2020 07 06 16  09 50 06.888   +10 51 12.27  .00971 1.0094  41.3 27??  45d 175
2020 07 06 17  09 50 12.221   +10 50 20.35  .00978 1.0094  41.3 27??  45d 175
2020 07 06 18  09 50 17.470   +10 49 29.18  .00985 1.0093  41.3 27??  45d 175
2020 07 06 19  09 50 22.639   +10 48 38.76  .00991 1.0093  41.3 27??  45d 175
2020 07 06 20  09 50 27.728   +10 47 49.07  .00998 1.0092  41.2 27??  45d 175
2020 07 06 21  09 50 32.739   +10 47 00.10  .01005 1.0092  41.2 27??  45d 175
2020 07 06 22  09 50 37.673   +10 46 11.83  .01011 1.0091  41.2 27??  45d 175
2020 07 06 23  09 50 42.533   +10 45 24.25  .01018 1.0090  41.2 27??  45d 175
2020 07 07 00  09 50 47.318   +10 44 37.35  .01024 1.0090  41.2 27??  45d 175
2020 07 07 01  09 50 52.031   +10 43 51.11  .01031 1.0089  41.2 27??  45d 175
2020 07 07 02  09 50 56.674   +10 43 05.53  .01038 1.0089  41.1 27??  45d 175
2020 07 07 03  09 51 01.247   +10 42 20.58  .01044 1.0088  41.1 27??  45d 175
2020 07 07 04  09 51 05.751   +10 41 36.26  .01051 1.0088  41.1 27??  45d 175
2020 07 07 05  09 51 10.189   +10 40 52.56  .01057 1.0087  41.1 27??  45d 175
2020 07 07 06  09 51 14.561   +10 40 09.47  .01064 1.0087  41.1 27??  45d 175
2020 07 07 07  09 51 18.868   +10 39 26.97  .01071 1.0086  41.1 27??  45d 175
2020 07 07 08  09 51 23.112   +10 38 45.06  .01077 1.0086  41.0 27??  45d 175
2020 07 07 09  09 51 27.294   +10 38 03.71  .01084 1.0085  41.0 27??  45d 175
2020 07 07 10  09 51 31.415   +10 37 22.94  .01090 1.0085  41.0 27??  45d 175
2020 07 07 11  09 51 35.475   +10 36 42.71  .01097 1.0084  41.0 27??  45d 175
2020 07 07 12  09 51 39.477   +10 36 03.03  .01104 1.0084  41.0 27??  45d 175
2020 07 07 13  09 51 43.421   +10 35 23.89  .01110 1.0083  40.9 27??  45d 175
2020 07 07 14  09 51 47.308   +10 34 45.27  .01117 1.0083  40.9 27??  45d 175
2020 07 07 15  09 51 51.139   +10 34 07.16  .01123 1.0082  40.9 27??  45d 175
2020 07 07 16  09 51 54.915   +10 33 29.57  .01130 1.0082  40.9 27??  45d 175
2020 07 07 17  09 51 58.637   +10 32 52.47  .01137 1.0081  40.8 27??  45d 175